User: anonymous   Login
Location: ??????
(36.0418°N, 43.6351°E)
Time: 14:01:13
(UTC+00:00)
Language:

Meteor 1-20 Rocket - Orbit

View from above orbital plane
View from above orbital plane
View from above satellite
View from above satellite

Ground track
Ground track

The orbit data is extracted from the following two-line orbital elements,

1 07575U 74099B   21125.43276822  .00000127  00000-0  62981-4 0  9998
2 07575  81.2481  10.9893 0049480 208.4324 151.4147 14.11086881386398
Epoch (UTC): 05 May 2021 10:23:11
Eccentricity: 0.0049480
inclination: 81.2481°
perigee height: 820 km
apogee height: 891 km
right ascension of ascending node: 10.9893°
argument of perigee: 208.4324°
revolutions per day: 14.11086881
mean anomaly at epoch: 151.4147°
orbit number at epoch: 38639

The dashed part of the orbit path shows where the satellite is in the earth's shadow,  

DLR